Fort Indiantown Gap, PA

5:08 PM EST on December 15, 2017 (GMT -0500)
Muir Army Air Field

Weather History for KMUI - July, 2013

Change the Weather History Date:

Monday, July 1, 2013

  Actual Average Record
Temperature  
Mean Temperature 74 °F -  
Max Temperature 79 °F 81 °F 95 °F (2012)
Min Temperature 71 °F 66 °F 53 °F (2011)
Cooling Degree Days 10    
Growing Degree Days 24 (Base 50)    
Moisture  
Dew Point 73 °F    
Average Humidity 95    
Maximum Humidity 100    
Minimum Humidity 74    
Precipitation  
Precipitation 1.26 in - - ()
Sea Level Pressure  
Sea Level Pressure 29.92 in    
Wind  
Wind Speed 3 mph (SE)    
Max Wind Speed 13 mph    
Max Gust Speed 17 mph    
Visibility 8 miles    
Events Fog , Rain , Thunderstorm    
Averages and records for this station are not official NWS values.
T = Trace of Precipitation, MM = Missing Value Source: NWS Daily Summary

Daily Weather History Graph

Daily Weather History Graph

Search for Another Location

Airport or City:

Trip Planner

Search our weather history database for the weather conditions in past years. The results will help you decide how hot, cold, wet, or windy it might be!

Date:

Astronomy

Jul. 01, 2013 Rise Set
Actual Time 5:39 AM EDT 8:40 PM EDT
Civil Twilight 5:06 AM EDT 9:13 PM EDT
Nautical Twilight 4:24 AM EDT 9:55 PM EDT
Astronomical Twilight 3:35 AM EDT 10:44 PM EDT
Moon 1:09 AM EDT (7/1) 2:52 PM EDT (7/1)
Length of Visible Light 16h 06m
Length of Day
15h 00m
Waning Crescent, 35% of the Moon is Illuminated
Jul 1
Waning Crescent
Jul 8
New
Jul 15
First Quarter
Jul 22
Full
Jul 29
Last Quarter

Hourly Weather History & Observations

Time (EDT) Temp. Dew Point Humidity Pressure Visibility Wind Dir Wind Speed Gust Speed Precip Events Conditions
12:16 AM 73.4 °F 73.4 °F 100% 29.89 in 10.0 mi Calm Calm - N/A   Overcast
12:58 AM 73.9 °F 72.7 °F 96% 29.88 in 10.0 mi Variable 2.3 mph - N/A   Overcast
1:33 AM 73.4 °F 73.4 °F 100% 29.88 in 10.0 mi NE 4.6 mph - N/A   Light Drizzle
1:58 AM 72.9 °F 72.5 °F 99% 29.88 in 3.0 mi North 2.3 mph - 0.04 in Rain , Thunderstorm Heavy Rain
1:59 AM 73.4 °F 71.6 °F 94% 29.88 in 2.5 mi NNE 3.5 mph - N/A Rain , Thunderstorm Heavy Thunderstorms and Rain
2:03 AM 73.4 °F 71.6 °F 94% 29.88 in 1.5 mi NNE 4.6 mph - N/A Rain , Thunderstorm Heavy Thunderstorms and Rain
2:05 AM 71.6 °F 71.6 °F 100% 29.88 in 1.8 mi NE 3.5 mph - N/A Rain , Thunderstorm Heavy Thunderstorms and Rain
2:07 AM 71.6 °F 71.6 °F 100% 29.88 in 2.0 mi Variable 2.3 mph - N/A Rain , Thunderstorm Light Thunderstorms and Rain
2:09 AM 71.6 °F 71.6 °F 100% 29.88 in 1.8 mi Variable 1.2 mph - N/A Rain , Thunderstorm Light Thunderstorms and Rain
2:13 AM 71.6 °F 71.6 °F 100% 29.89 in 1.5 mi WSW 9.2 mph - N/A Rain , Thunderstorm Heavy Thunderstorms and Rain
2:15 AM 71.6 °F 71.6 °F 100% 29.89 in 1.2 mi West 12.7 mph - N/A Rain , Thunderstorm Heavy Thunderstorms and Rain
2:17 AM 71.6 °F 71.6 °F 100% 29.88 in 0.8 mi NW 10.4 mph - N/A Rain , Thunderstorm Heavy Thunderstorms and Rain
2:18 AM 71.6 °F 71.6 °F 100% 29.88 in 0.8 mi NNW 10.4 mph - N/A Rain , Thunderstorm Heavy Thunderstorms and Rain
2:22 AM 71.6 °F 71.6 °F 100% 29.88 in 1.0 mi Variable 5.8 mph - N/A Rain , Thunderstorm Heavy Thunderstorms and Rain
2:26 AM 71.6 °F 71.6 °F 100% 29.88 in 1.5 mi NNE 4.6 mph - N/A Rain , Thunderstorm Rain
2:27 AM 71.6 °F 71.6 °F 100% 29.88 in 2.0 mi North 3.5 mph - N/A Rain , Thunderstorm Light Thunderstorms and Rain
2:29 AM 71.6 °F 71.6 °F 100% 29.88 in 3.0 mi Variable 2.3 mph - N/A Rain , Thunderstorm Light Thunderstorms and Rain
2:31 AM 71.6 °F 71.6 °F 100% 29.88 in 5.0 mi Variable 3.5 mph - N/A Rain , Thunderstorm Light Thunderstorms and Rain
2:33 AM 71.6 °F 71.6 °F 100% 29.87 in 7.0 mi Variable 2.3 mph - N/A Rain , Thunderstorm Light Thunderstorms and Rain
2:35 AM 71.6 °F 71.6 °F 100% 29.88 in 9.0 mi Variable 3.5 mph - N/A Rain , Thunderstorm Light Thunderstorms and Rain
2:39 AM 71.6 °F 71.6 °F 100% 29.88 in 10.0 mi Variable 4.6 mph - N/A Rain , Thunderstorm Light Thunderstorms and Rain
2:43 AM 71.6 °F 71.6 °F 100% 29.88 in 10.0 mi ENE 3.5 mph - N/A   Light Drizzle
2:44 AM 71.6 °F 71.6 °F 100% 29.88 in 10.0 mi ENE 4.6 mph - N/A   Overcast
2:46 AM 71.6 °F 71.6 °F 100% 29.88 in 10.0 mi Variable 2.3 mph - N/A   Overcast
2:58 AM 72.1 °F 72.1 °F 100% 29.88 in 10.0 mi Variable 3.5 mph - 0.69 in   Overcast
3:49 AM 71.6 °F 71.6 °F 100% 29.89 in 9.0 mi North 1.2 mph - N/A   Overcast
3:55 AM 71.6 °F 71.6 °F 100% 29.89 in 8.0 mi Calm Calm - N/A   Overcast
3:58 AM 71.2 °F 71.2 °F 100% 29.89 in 8.0 mi Calm Calm - N/A   Overcast
4:36 AM 71.6 °F 71.6 °F 100% 29.89 in 6.0 mi NNE 3.5 mph - N/A   Overcast
4:38 AM 71.6 °F 71.6 °F 100% 29.89 in 6.0 mi NNE 2.3 mph - N/A   Overcast
4:44 AM 71.6 °F 71.6 °F 100% 29.89 in 7.0 mi Calm Calm - N/A   Overcast
4:58 AM 71.4 °F 71.4 °F 100% 29.89 in 9.0 mi Calm Calm - N/A   Overcast
5:22 AM 71.6 °F 71.6 °F 100% 29.89 in 8.0 mi Calm Calm - N/A   Mostly Cloudy
5:26 AM 71.6 °F 71.6 °F 100% 29.90 in 8.0 mi Calm Calm - N/A   Mostly Cloudy
5:30 AM 71.6 °F 71.6 °F 100% 29.90 in 9.0 mi Calm Calm - N/A   Scattered Clouds
5:34 AM 71.6 °F 71.6 °F 100% 29.90 in 8.0 mi Calm Calm - N/A   Mostly Cloudy
5:40 AM 71.6 °F 71.6 °F 100% 29.90 in 7.0 mi Calm Calm - N/A   Mostly Cloudy
5:42 AM 71.6 °F 71.6 °F 100% 29.90 in 7.0 mi Calm Calm - N/A   Mostly Cloudy
5:58 AM 71.1 °F 71.1 °F 100% 29.90 in 6.0 mi Calm Calm - N/A   Mostly Cloudy
6:14 AM 71.6 °F 71.6 °F 100% 29.91 in 8.0 mi Calm Calm - N/A   Mostly Cloudy
6:16 AM 71.6 °F 71.6 °F 100% 29.91 in 8.0 mi Calm Calm - N/A   Mostly Cloudy
6:24 AM 71.6 °F 71.6 °F 100% 29.91 in 6.0 mi NE 1.2 mph - N/A   Mostly Cloudy
6:30 AM 71.6 °F 71.6 °F 100% 29.91 in 5.0 mi NNE 1.2 mph - N/A   Mostly Cloudy
6:44 AM 71.6 °F 71.6 °F 100% 29.91 in 5.0 mi NNE 1.2 mph - N/A   Mostly Cloudy
6:54 AM 71.6 °F 71.6 °F 100% 29.92 in 6.0 mi Calm Calm - N/A   Mostly Cloudy
6:58 AM 71.1 °F 71.1 °F 100% 29.92 in 7.0 mi North 1.2 mph - N/A   Mostly Cloudy
7:02 AM 71.6 °F 71.6 °F 100% 29.92 in 7.0 mi Calm Calm - N/A   Mostly Cloudy
7:04 AM 71.6 °F 71.6 °F 100% 29.92 in 7.0 mi NNE 1.2 mph - N/A   Mostly Cloudy
7:58 AM 71.6 °F 71.6 °F 100% 29.93 in 10.0 mi Calm Calm - N/A   Scattered Clouds
8:18 AM 71.6 °F 71.6 °F 100% 29.93 in 9.0 mi Calm Calm - N/A   Mostly Cloudy
8:32 AM 71.6 °F 71.6 °F 100% 29.94 in 7.0 mi Calm Calm - N/A   Mostly Cloudy
8:38 AM 71.6 °F 71.6 °F 100% 29.93 in 7.0 mi ENE 2.3 mph - N/A   Overcast
8:46 AM 71.6 °F 71.6 °F 100% 29.94 in 7.0 mi Calm Calm - N/A   Overcast
8:52 AM 71.6 °F 71.6 °F 100% 29.94 in 7.0 mi Calm Calm - N/A   Overcast
8:58 AM 72.7 °F 72.7 °F 100% 29.93 in 7.0 mi NE 4.6 mph - N/A   Overcast
9:02 AM 73.4 °F 73.4 °F 100% 29.93 in 8.0 mi ENE 5.8 mph - N/A   Overcast
9:18 AM 73.4 °F 73.4 °F 100% 29.94 in 10.0 mi ENE 4.6 mph - N/A   Overcast
9:20 AM 73.4 °F 73.4 °F 100% 29.94 in 10.0 mi East 4.6 mph - N/A   Overcast
9:58 AM 74.1 °F 73.9 °F 99% 29.94 in 10.0 mi Calm Calm - N/A   Mostly Cloudy
10:04 AM 75.2 °F 73.4 °F 94% 29.94 in 10.0 mi Variable 2.3 mph - N/A Rain Light Rain
10:06 AM 75.2 °F 73.4 °F 94% 29.93 in 10.0 mi Variable 2.3 mph - N/A Rain Light Rain
10:08 AM 75.2 °F 73.4 °F 94% 29.93 in 10.0 mi Variable 1.2 mph - N/A Rain Light Rain
10:13 AM 75.2 °F 75.2 °F 100% 29.94 in 10.0 mi Calm Calm - N/A   Mostly Cloudy
10:18 AM 75.2 °F 73.4 °F 94% 29.94 in 10.0 mi Variable 1.2 mph - N/A   Mostly Cloudy
10:20 AM 75.2 °F 73.4 °F 94% 29.94 in 10.0 mi Calm Calm - N/A   Mostly Cloudy
10:24 AM 75.2 °F 73.4 °F 94% 29.94 in 10.0 mi Variable 2.3 mph - N/A   Mostly Cloudy
10:26 AM 75.2 °F 73.4 °F 94% 29.94 in 10.0 mi ENE 2.3 mph - N/A   Mostly Cloudy
10:35 AM 77.0 °F 73.4 °F 89% 29.94 in 10.0 mi East 4.6 mph - N/A   Mostly Cloudy
10:57 AM 77.0 °F 71.6 °F 83% 29.94 in 10.0 mi Variable 2.3 mph - N/A   Mostly Cloudy
10:58 AM 77.0 °F 71.6 °F 83% 29.94 in 10.0 mi Variable 2.3 mph - 0.00 in   Mostly Cloudy
11:10 AM 78.8 °F 69.8 °F 74% 29.94 in 10.0 mi SE 6.9 mph - N/A   Mostly Cloudy
11:26 AM 78.8 °F 71.6 °F 78% 29.94 in 10.0 mi ESE 2.3 mph - N/A   Mostly Cloudy
11:36 AM 78.8 °F 69.8 °F 74% 29.94 in 10.0 mi South 4.6 mph - N/A   Mostly Cloudy
11:44 AM 78.8 °F 71.6 °F 78% 29.94 in 10.0 mi Variable 3.5 mph - N/A   Mostly Cloudy
11:58 AM 78.4 °F 70.9 °F 77% 29.94 in 10.0 mi Variable 1.2 mph - 0.01 in   Scattered Clouds
12:13 PM 78.8 °F 71.6 °F 78% 29.93 in 10.0 mi Variable 3.5 mph - N/A Rain Light Rain
12:23 PM 78.8 °F 71.6 °F 78% 29.93 in 10.0 mi South 5.8 mph - N/A   Mostly Cloudy
12:58 PM 76.5 °F 71.4 °F 84% 29.93 in 10.0 mi SSE 9.2 mph - 0.00 in   Mostly Cloudy
1:06 PM 75.2 °F 71.6 °F 89% 29.93 in 10.0 mi SSE 4.6 mph - N/A   Light Drizzle
1:58 PM 74.1 °F 72.9 °F 96% 29.93 in 10.0 mi Calm Calm - 0.01 in Rain Light Rain
2:02 PM 75.2 °F 73.4 °F 94% 29.92 in 10.0 mi Calm Calm - N/A   Partly Cloudy
2:07 PM 75.2 °F 73.4 °F 94% 29.92 in 10.0 mi Calm Calm - N/A   Light Drizzle
2:21 PM 75.2 °F 73.4 °F 94% 29.93 in 3.0 mi South 3.5 mph - N/A Rain Light Rain
2:23 PM 75.2 °F 73.4 °F 94% 29.93 in 0.8 mi Variable 2.3 mph - N/A Rain Heavy Rain
2:25 PM 75.2 °F 73.4 °F 94% 29.93 in 0.5 mi West 4.6 mph - N/A Fog , Rain Heavy Rain
2:29 PM 73.4 °F 73.4 °F 100% 29.93 in 0.5 mi WSW 6.9 mph - N/A Fog , Rain Heavy Rain
2:31 PM 73.4 °F 73.4 °F 100% 29.93 in 0.2 mi SW 5.8 mph - N/A Fog , Rain Heavy Rain
2:33 PM 73.4 °F 73.4 °F 100% 29.93 in 0.5 mi SW 3.5 mph - N/A Fog , Rain Heavy Rain
2:35 PM 73.4 °F 73.4 °F 100% 29.93 in 0.8 mi Variable 1.2 mph - N/A Rain Light Rain
2:37 PM 73.4 °F 73.4 °F 100% 29.93 in 1.0 mi Calm Calm - N/A Rain Light Rain
2:39 PM 73.4 °F 73.4 °F 100% 29.93 in 2.0 mi Variable 1.2 mph - N/A Rain Light Rain
2:41 PM 73.4 °F 73.4 °F 100% 29.94 in 5.0 mi Variable 2.3 mph - N/A Rain Light Rain
2:43 PM 73.4 °F 73.4 °F 100% 29.94 in 9.0 mi SSW 3.5 mph - N/A   Light Drizzle
2:57 PM 73.4 °F 73.4 °F 100% 29.93 in 5.0 mi SW 3.5 mph - N/A Rain Light Rain
2:58 PM 73.4 °F 73.4 °F 100% 29.93 in 5.0 mi SW 3.5 mph - 0.43 in Rain Light Rain
3:11 PM 75.2 °F 75.2 °F 100% 29.94 in 10.0 mi SW 5.8 mph - N/A   Scattered Clouds
3:45 PM 77.0 °F 77.0 °F 100% 29.93 in 10.0 mi Variable 3.5 mph - N/A   Scattered Clouds
3:53 PM 77.0 °F 77.0 °F 100% 29.93 in 10.0 mi SSW 6.9 mph - N/A   Mostly Cloudy
3:55 PM 77.0 °F 75.2 °F 94% 29.93 in 10.0 mi SSW 5.8 mph - N/A   Mostly Cloudy
3:58 PM 77.4 °F 76.1 °F 96% 29.93 in 10.0 mi South 5.8 mph - 0.01 in   Mostly Cloudy
4:02 PM 77.0 °F 77.0 °F 100% 29.93 in 10.0 mi SSE 6.9 mph - N/A   Mostly Cloudy
4:06 PM 78.8 °F 75.2 °F 89% 29.93 in 10.0 mi Variable 5.8 mph - N/A   Mostly Cloudy
4:08 PM 78.8 °F 75.2 °F 89% 29.93 in 10.0 mi South 4.6 mph - N/A   Mostly Cloudy
4:11 PM 78.8 °F 75.2 °F 89% 29.93 in 10.0 mi SSW 5.8 mph - N/A   Mostly Cloudy
4:17 PM 78.8 °F 75.2 °F 89% 29.93 in 10.0 mi Variable 4.6 mph - N/A   Mostly Cloudy
4:19 PM 78.8 °F 75.2 °F 89% 29.92 in 10.0 mi Variable 6.9 mph - N/A   Mostly Cloudy
4:25 PM 78.8 °F 73.4 °F 83% 29.92 in 10.0 mi SSE 6.9 mph - N/A   Mostly Cloudy
4:27 PM 78.8 °F 73.4 °F 83% 29.92 in 10.0 mi South 8.1 mph - N/A   Mostly Cloudy
4:35 PM 78.8 °F 73.4 °F 83% 29.92 in 10.0 mi South 5.8 mph - N/A   Mostly Cloudy
4:49 PM 78.8 °F 73.4 °F 83% 29.92 in 10.0 mi South 12.7 mph 17.3 mph N/A   Mostly Cloudy
4:57 PM 78.8 °F 73.4 °F 83% 29.92 in 10.0 mi South 10.4 mph 17.3 mph N/A Rain Light Rain
4:58 PM 78.8 °F 73.4 °F 83% 29.92 in 10.0 mi South 10.4 mph 17.3 mph N/A Rain Light Rain
5:02 PM 78.8 °F 73.4 °F 83% 29.92 in 10.0 mi Variable 5.8 mph - N/A   Light Drizzle
5:04 PM 77.0 °F 75.2 °F 94% 29.92 in 10.0 mi SE 6.9 mph - N/A   Light Drizzle
5:12 PM 77.0 °F 75.2 °F 94% 29.92 in 10.0 mi SE 8.1 mph - N/A   Mostly Cloudy
5:22 PM 77.0 °F 73.4 °F 89% 29.92 in 10.0 mi SSE 6.9 mph - N/A   Mostly Cloudy
5:26 PM 77.0 °F 73.4 °F 89% 29.92 in 10.0 mi SE 8.1 mph - N/A   Mostly Cloudy
5:38 PM 77.0 °F 73.4 °F 89% 29.93 in 7.0 mi SSE 9.2 mph - N/A Rain Light Rain
5:46 PM 77.0 °F 73.4 °F 89% 29.93 in 7.0 mi SSE 8.1 mph - N/A Rain Light Rain
5:49 PM 77.0 °F 73.4 °F 89% 29.93 in 10.0 mi SSE 5.8 mph - N/A   Mostly Cloudy
5:58 PM 77.2 °F 73.6 °F 89% 29.93 in 10.0 mi SSE 8.1 mph - 0.01 in   Mostly Cloudy
6:07 PM 77.0 °F 73.4 °F 89% 29.93 in 10.0 mi South 8.1 mph - N/A Rain Light Rain
6:31 PM 75.2 °F 75.2 °F 100% 29.94 in 7.0 mi Variable 1.2 mph - N/A Rain Light Rain
6:33 PM 75.2 °F 75.2 °F 100% 29.94 in 5.0 mi Calm Calm - N/A Rain Light Rain
6:39 PM 75.2 °F 75.2 °F 100% 29.94 in 5.0 mi South 8.1 mph - N/A Rain Light Rain
6:50 PM 77.0 °F 73.4 °F 89% 29.95 in 10.0 mi South 11.5 mph - N/A   Mostly Cloudy
6:52 PM 77.0 °F 71.6 °F 83% 29.95 in 10.0 mi South 10.4 mph - N/A   Mostly Cloudy
6:58 PM 76.1 °F 72.1 °F 87% 29.95 in 10.0 mi South 8.1 mph - 0.06 in   Mostly Cloudy
7:58 PM 75.7 °F 74.5 °F 96% 29.96 in 10.0 mi Calm Calm - N/A   Clear
8:20 PM 73.4 °F 73.4 °F 100% 29.97 in 10.0 mi Calm Calm - N/A   Mostly Cloudy
8:48 PM 73.4 °F 73.4 °F 100% 29.97 in 10.0 mi Calm Calm - N/A   Mostly Cloudy
8:54 PM 73.4 °F 73.4 °F 100% 29.97 in 10.0 mi Calm Calm - N/A   Mostly Cloudy
8:56 PM 73.4 °F 73.4 °F 100% 29.97 in 10.0 mi Calm Calm - N/A   Mostly Cloudy
8:58 PM 73.4 °F 73.4 °F 100% 29.97 in 10.0 mi Calm Calm - N/A   Mostly Cloudy
9:22 PM 73.4 °F 73.4 °F 100% 29.98 in 9.0 mi Calm Calm - N/A   Mostly Cloudy
9:54 PM 73.4 °F 73.4 °F 100% 29.99 in 10.0 mi Calm Calm - N/A   Scattered Clouds
9:58 PM 72.9 °F 72.9 °F 100% 29.99 in 10.0 mi Calm Calm - N/A   Scattered Clouds
10:38 PM 73.4 °F 73.4 °F 100% 30.00 in 10.0 mi Calm Calm - N/A   Overcast
10:58 PM 72.7 °F 72.7 °F 100% 30.00 in 10.0 mi Calm Calm - N/A   Overcast
11:32 PM 71.6 °F 71.6 °F 100% 30.00 in 10.0 mi NNE 1.2 mph - N/A   Scattered Clouds
11:56 PM 71.6 °F 71.6 °F 100% 30.00 in 10.0 mi Calm Calm - N/A   Mostly Cloudy
11:58 PM 72.3 °F 72.3 °F 100% 30.00 in 10.0 mi Calm Calm - N/A   Mostly Cloudy